User: anonymous   Login
Location: Niverville
(49.6028°N, 97.0419°W)
Time: 23:13:26
(UTC-06:00)
Language:

BREEZE-M DEB (TANK) - Orbit

View from above orbital plane
View from above orbital plane
View from above satellite
View from above satellite

Ground track
Ground track

The orbit data is extracted from the following two-line orbital elements,

1 33374U 08044B   14329.12745846  .00001930  00000-0  47532-3 0  7841
2 33374 049.4128 218.6528 5459844 244.6158 336.9934 04.84718276108532
Epoch (UTC): 25 November 2014 03:03:32
Eccentricity: 0.5459844
inclination: 49.4128°
perigee height: 318 km
apogee height: 16422 km
right ascension of ascending node: 218.6528°
argument of perigee: 244.6158°
revolutions per day: 4.84718276
mean anomaly at epoch: 336.9934°
orbit number at epoch: 10853

The dashed part of the orbit path shows where the satellite is in the earth's shadow,  

DLR